Time,TemperatureF,DewpointF,PressureIn,WindDirection,WindDirectionDegrees,WindSpeedMPH,WindSpeedGustMPH,Humidity,HourlyPrecipIn,Conditions,Clouds,dailyrainin,SoftwareType,DateUTC
2013-04-29 00:02:00,59.0,58.0,29.96,South,188,0.0,-999.0,97,-99.99,,,0.00,,2013-04-29 05:02:00,
2013-04-29 00:12:00,59.0,58.0,29.96,South,188,0.0,-999.0,97,-99.99,,,0.00,,2013-04-29 05:12:00,
2013-04-29 00:22:00,59.0,58.0,29.96,South,188,1.0,-999.0,97,-99.99,,,0.00,,2013-04-29 05:22:00,
2013-04-29 00:32:00,59.0,58.0,29.96,South,188,0.0,-999.0,97,-99.99,,,0.00,,2013-04-29 05:32:00,
2013-04-29 00:42:00,59.0,58.0,29.96,South,188,0.0,-999.0,97,-99.99,,,0.00,,2013-04-29 05:42:00,
2013-04-29 00:52:00,59.0,58.0,29.96,South,188,1.0,-999.0,97,-99.99,,,0.00,,2013-04-29 05:52:00,
2013-04-29 01:02:00,59.0,58.0,29.96,SSW,193,1.0,-999.0,97,-99.99,,,0.00,,2013-04-29 06:02:00,
2013-04-29 01:11:00,59.0,58.0,29.96,SSW,193,1.0,-999.0,97,-99.99,,,0.00,,2013-04-29 06:11:00,
2013-04-29 01:21:00,59.0,58.0,29.96,SSW,193,0.0,-999.0,97,-99.99,,,0.00,,2013-04-29 06:21:00,
2013-04-29 01:32:00,59.0,58.0,29.96,SSW,193,1.0,-999.0,97,-99.99,,,0.00,,2013-04-29 06:32:00,
2013-04-29 01:42:00,59.0,58.0,29.96,SSW,193,1.0,-999.0,97,-99.99,,,0.00,,2013-04-29 06:42:00,
2013-04-29 01:52:00,59.0,58.0,29.96,SSW,204,2.0,-999.0,98,-99.99,,,0.00,,2013-04-29 06:52:00,
2013-04-29 02:01:00,59.0,58.0,29.96,SSW,202,3.0,-999.0,97,-99.99,,,0.00,,2013-04-29 07:01:00,
2013-04-29 02:11:00,59.0,58.0,29.96,SSW,202,3.0,-999.0,97,-99.99,,,0.00,,2013-04-29 07:11:00,
2013-04-29 02:21:00,59.0,58.0,29.97,SSW,192,3.0,-999.0,97,-99.99,,,0.00,,2013-04-29 07:21:00,
2013-04-29 02:32:00,59.0,58.0,29.97,SSW,199,3.0,-999.0,97,-99.99,,,0.00,,2013-04-29 07:32:00,
2013-04-29 02:41:00,59.0,58.0,29.97,SSW,199,3.0,-999.0,97,-99.99,,,0.00,,2013-04-29 07:41:00,
2013-04-29 02:52:00,58.0,57.0,29.97,South,189,4.0,-999.0,97,-99.99,,,0.00,,2013-04-29 07:52:00,
2013-04-29 03:02:00,58.0,57.0,29.97,South,191,3.0,-999.0,97,-99.99,,,0.00,,2013-04-29 08:02:00,
2013-04-29 03:11:00,58.0,57.0,29.97,South,191,3.0,-999.0,97,-99.99,,,0.00,,2013-04-29 08:11:00,
2013-04-29 03:21:00,58.0,57.0,29.97,SSW,193,2.0,-999.0,97,-99.99,,,0.00,,2013-04-29 08:21:00,
2013-04-29 03:31:00,58.0,57.0,29.97,SSW,192,2.0,-999.0,97,-99.99,,,0.00,,2013-04-29 08:31:00,
2013-04-29 03:42:00,58.0,57.0,29.97,SSW,192,2.0,-999.0,97,-99.99,,,0.00,,2013-04-29 08:42:00,
2013-04-29 03:52:00,58.0,57.0,29.97,SSW,193,2.0,-999.0,97,-99.99,,,0.00,,2013-04-29 08:52:00,
2013-04-29 04:01:00,58.0,57.0,29.96,South,181,2.0,-999.0,97,-99.99,,,0.00,,2013-04-29 09:01:00,
2013-04-29 04:12:00,58.0,57.0,29.96,South,181,2.0,-999.0,97,-99.99,,,0.00,,2013-04-29 09:12:00,
2013-04-29 04:21:00,58.0,57.0,29.96,South,181,0.0,-999.0,97,-99.99,,,0.00,,2013-04-29 09:21:00,
2013-04-29 04:33:00,58.0,57.0,29.96,South,181,0.0,-999.0,97,-99.99,,,0.00,,2013-04-29 09:33:00,
2013-04-29 04:42:00,58.0,57.0,29.96,South,181,0.0,-999.0,97,-99.99,,,0.00,,2013-04-29 09:42:00,
2013-04-29 04:53:00,58.0,57.0,29.96,South,181,1.0,-999.0,97,-99.99,,,0.00,,2013-04-29 09:53:00,
2013-04-29 05:02:00,58.0,57.0,29.96,South,181,0.0,-999.0,97,-99.99,,,0.00,,2013-04-29 10:02:00,
2013-04-29 05:12:00,58.0,57.0,29.96,South,181,0.0,-999.0,97,-99.99,,,0.00,,2013-04-29 10:12:00,
2013-04-29 05:23:00,58.0,57.0,29.96,South,181,0.0,-999.0,98,-99.99,,,0.00,,2013-04-29 10:23:00,
2013-04-29 05:32:00,58.0,57.0,29.97,SSW,197,1.0,-999.0,98,-99.99,,,0.00,,2013-04-29 10:32:00,
2013-04-29 05:42:00,58.0,57.0,29.97,SSW,197,1.0,-999.0,98,-99.99,,,0.00,,2013-04-29 10:42:00,
2013-04-29 05:52:00,58.0,57.0,29.97,SSW,197,1.0,-999.0,97,-99.99,,,0.00,,2013-04-29 10:52:00,
2013-04-29 06:02:00,58.0,57.0,29.97,SSW,197,0.0,-999.0,98,-99.99,,,0.00,,2013-04-29 11:02:00,
2013-04-29 06:12:00,58.0,57.0,29.97,SSW,197,0.0,-999.0,98,-99.99,,,0.00,,2013-04-29 11:12:00,
2013-04-29 06:21:00,58.0,57.0,29.98,SSW,197,0.0,-999.0,98,-99.99,,,0.00,,2013-04-29 11:21:00,
2013-04-29 06:32:00,58.0,57.0,29.98,SSW,197,0.0,-999.0,98,-99.99,,,0.00,,2013-04-29 11:32:00,
2013-04-29 06:42:00,58.0,57.0,29.98,SSW,197,0.0,-999.0,98,-99.99,,,0.00,,2013-04-29 11:42:00,
2013-04-29 06:52:00,58.0,57.0,29.98,SSW,197,0.0,-999.0,97,-99.99,,,0.00,,2013-04-29 11:52:00,
2013-04-29 07:01:00,59.0,58.0,29.99,SSW,197,0.0,-999.0,98,-99.99,,,0.00,,2013-04-29 12:01:00,
2013-04-29 07:12:00,59.0,58.0,29.99,SSW,197,0.0,-999.0,98,-99.99,,,0.00,,2013-04-29 12:12:00,
2013-04-29 07:22:00,59.0,58.0,29.99,SSW,197,0.0,-999.0,98,-99.99,,,0.00,,2013-04-29 12:22:00,
2013-04-29 07:31:00,59.0,58.0,30.00,SE,141,2.0,-999.0,97,-99.99,,,0.00,,2013-04-29 12:31:00,
2013-04-29 07:42:00,59.0,58.0,30.00,SE,141,2.0,-999.0,97,-99.99,,,0.00,,2013-04-29 12:42:00,
2013-04-29 07:52:00,60.0,59.0,30.00,SSE,158,2.0,-999.0,97,-99.99,,,0.00,,2013-04-29 12:52:00,
2013-04-29 08:01:00,60.0,59.0,30.00,SSE,154,2.0,-999.0,96,-99.99,,,0.00,,2013-04-29 13:01:00,
2013-04-29 08:11:00,60.0,59.0,30.00,SSE,154,2.0,-999.0,96,-99.99,,,0.00,,2013-04-29 13:11:00,
2013-04-29 08:21:00,61.0,60.0,30.00,SSE,154,1.0,-999.0,95,-99.99,,,0.00,,2013-04-29 13:21:00,
2013-04-29 08:31:00,63.0,61.0,30.00,East,98,1.0,-999.0,92,-99.99,,,0.00,,2013-04-29 13:31:00,
2013-04-29 08:42:00,63.0,61.0,30.00,East,98,1.0,-999.0,92,-99.99,,,0.00,,2013-04-29 13:42:00,
2013-04-29 08:52:00,63.0,60.0,29.99,East,98,0.0,-999.0,90,-99.99,,,0.00,,2013-04-29 13:52:00,
2013-04-29 09:02:00,63.0,60.0,29.98,SSE,164,0.0,-999.0,90,-99.99,,,0.00,,2013-04-29 14:02:00,
2013-04-29 09:11:00,63.0,60.0,29.98,SSE,164,0.0,-999.0,90,-99.99,,,0.00,,2013-04-29 14:11:00,
2013-04-29 09:21:00,64.0,60.0,29.98,WNW,299,1.0,-999.0,87,-99.99,,,0.00,,2013-04-29 14:21:00,
2013-04-29 09:32:00,64.0,59.0,29.98,SSW,192,2.0,-999.0,84,-99.99,,,0.00,,2013-04-29 14:32:00,
2013-04-29 09:42:00,64.0,59.0,29.98,SSW,192,2.0,-999.0,84,-99.99,,,0.00,,2013-04-29 14:42:00,
2013-04-29 09:52:00,65.0,60.0,29.99,WNW,290,3.0,-999.0,83,-99.99,,,0.00,,2013-04-29 14:52:00,
2013-04-29 10:01:00,65.0,61.0,29.98,WNW,283,3.0,-999.0,87,-99.99,,,0.00,,2013-04-29 15:01:00,
2013-04-29 10:12:00,65.0,61.0,29.98,WNW,283,3.0,-999.0,87,-99.99,,,0.00,,2013-04-29 15:12:00,
2013-04-29 10:21:00,65.0,60.0,29.99,SW,231,3.0,-999.0,85,-99.99,,,0.00,,2013-04-29 15:21:00,
2013-04-29 10:33:00,66.0,59.0,29.99,West,270,1.0,-999.0,79,-99.99,,,0.00,,2013-04-29 15:33:00,
2013-04-29 10:42:00,66.0,59.0,29.99,West,270,1.0,-999.0,79,-99.99,,,0.00,,2013-04-29 15:42:00,
2013-04-29 10:53:00,65.0,59.0,29.99,West,270,3.0,-999.0,82,-99.99,,,0.00,,2013-04-29 15:53:00,
2013-04-29 11:02:00,67.0,61.0,29.99,North,349,3.0,-999.0,82,-99.99,,,0.00,,2013-04-29 16:02:00,
2013-04-29 11:12:00,67.0,61.0,29.99,North,349,3.0,-999.0,82,-99.99,,,0.00,,2013-04-29 16:12:00,
2013-04-29 11:23:00,66.0,60.0,29.99,WNW,303,3.0,-999.0,82,-99.99,,,0.00,,2013-04-29 16:23:00,
2013-04-29 11:33:00,66.0,60.0,29.99,WNW,302,2.0,-999.0,81,-99.99,,,0.00,,2013-04-29 16:33:00,
2013-04-29 11:42:00,66.0,60.0,29.99,WNW,302,2.0,-999.0,81,-99.99,,,0.00,,2013-04-29 16:42:00,
2013-04-29 11:52:00,68.0,61.0,29.98,NW,312,3.0,-999.0,78,-99.99,,,0.00,,2013-04-29 16:52:00,
2013-04-29 12:02:00,68.0,59.0,29.98,SW,224,4.0,-999.0,72,-99.99,,,0.00,,2013-04-29 17:02:00,
2013-04-29 12:12:00,68.0,59.0,29.98,SW,224,4.0,-999.0,72,-99.99,,,0.00,,2013-04-29 17:12:00,
2013-04-29 12:22:00,70.0,60.0,29.97,WSW,242,5.0,-999.0,71,-99.99,,,0.00,,2013-04-29 17:22:00,
2013-04-29 12:32:00,71.0,60.0,29.97,SSW,209,5.0,-999.0,69,-99.99,,,0.00,,2013-04-29 17:32:00,
2013-04-29 12:42:00,71.0,60.0,29.97,SSW,209,5.0,-999.0,69,-99.99,,,0.00,,2013-04-29 17:42:00,
2013-04-29 12:52:00,68.0,60.0,29.96,West,268,4.0,-999.0,76,-99.99,,,0.00,,2013-04-29 17:52:00,
2013-04-29 13:01:00,69.0,62.0,29.96,West,274,4.0,-999.0,78,-99.99,,,0.00,,2013-04-29 18:01:00,
2013-04-29 13:13:00,69.0,62.0,29.96,West,274,4.0,-999.0,78,-99.99,,,0.00,,2013-04-29 18:13:00,
2013-04-29 13:22:00,69.0,60.0,29.96,West,260,4.0,-999.0,73,-99.99,,,0.00,,2013-04-29 18:22:00,
2013-04-29 13:32:00,69.0,60.0,29.95,NW,308,3.0,-999.0,74,-99.99,,,0.00,,2013-04-29 18:32:00,
2013-04-29 13:42:00,69.0,60.0,29.95,NW,308,3.0,-999.0,74,-99.99,,,0.00,,2013-04-29 18:42:00,
2013-04-29 13:52:00,70.0,61.0,29.94,NW,322,2.0,-999.0,73,-99.99,,,0.00,,2013-04-29 18:52:00,
2013-04-29 14:01:00,70.0,61.0,29.94,West,274,4.0,-999.0,72,-99.99,,,0.00,,2013-04-29 19:01:00,
2013-04-29 14:11:00,70.0,61.0,29.94,West,274,4.0,-999.0,72,-99.99,,,0.00,,2013-04-29 19:11:00,
2013-04-29 14:21:00,71.0,60.0,29.93,WSW,254,4.0,-999.0,69,-99.99,,,0.00,,2013-04-29 19:21:00,
2013-04-29 14:31:00,73.0,63.0,29.93,WSW,249,4.0,-999.0,70,-99.99,,,0.00,,2013-04-29 19:31:00,
2013-04-29 14:41:00,73.0,63.0,29.93,WSW,249,4.0,-999.0,70,-99.99,,,0.00,,2013-04-29 19:41:00,
2013-04-29 14:52:00,72.0,60.0,29.92,WSW,245,5.0,-999.0,66,-99.99,,,0.00,,2013-04-29 19:52:00,
2013-04-29 15:02:00,73.0,61.0,29.92,WNW,296,5.0,-999.0,67,-99.99,,,0.00,,2013-04-29 20:02:00,
2013-04-29 15:11:00,73.0,61.0,29.92,WNW,296,5.0,-999.0,67,-99.99,,,0.00,,2013-04-29 20:11:00,
2013-04-29 15:21:00,72.0,59.0,29.91,SSW,204,2.0,-999.0,63,-99.99,,,0.00,,2013-04-29 20:21:00,
2013-04-29 15:32:00,73.0,61.0,29.90,WNW,293,4.0,-999.0,67,-99.99,,,0.00,,2013-04-29 20:32:00,
2013-04-29 15:42:00,73.0,61.0,29.90,WNW,293,4.0,-999.0,67,-99.99,,,0.00,,2013-04-29 20:42:00,
2013-04-29 15:52:00,73.0,58.0,29.90,SW,235,3.0,-999.0,59,-99.99,,,0.00,,2013-04-29 20:52:00,
2013-04-29 16:01:00,74.0,60.0,29.89,SSW,197,3.0,-999.0,61,-99.99,,,0.00,,2013-04-29 21:01:00,
2013-04-29 16:11:00,74.0,60.0,29.89,SSW,197,3.0,-999.0,61,-99.99,,,0.00,,2013-04-29 21:11:00,
2013-04-29 16:21:00,74.0,60.0,29.89,South,190,3.0,-999.0,62,-99.99,,,0.00,,2013-04-29 21:21:00,
2013-04-29 16:33:00,73.0,59.0,29.88,WSW,248,4.0,-999.0,62,-99.99,,,0.00,,2013-04-29 21:33:00,
2013-04-29 16:42:00,73.0,59.0,29.88,WSW,248,4.0,-999.0,62,-99.99,,,0.00,,2013-04-29 21:42:00,
2013-04-29 16:53:00,74.0,58.0,29.88,West,268,4.0,-999.0,58,-99.99,,,0.00,,2013-04-29 21:53:00,
2013-04-29 17:02:00,74.0,57.0,29.87,WSW,245,2.0,-999.0,56,-99.99,,,0.00,,2013-04-29 22:02:00,
2013-04-29 17:13:00,74.0,57.0,29.87,WSW,245,2.0,-999.0,56,-99.99,,,0.00,,2013-04-29 22:13:00,
2013-04-29 17:23:00,74.0,58.0,29.88,WSW,243,3.0,-999.0,57,-99.99,,,0.00,,2013-04-29 22:23:00,
2013-04-29 17:32:00,74.0,60.0,29.87,West,267,3.0,-999.0,61,-99.99,,,0.00,,2013-04-29 22:32:00,
2013-04-29 17:42:00,74.0,60.0,29.87,West,267,3.0,-999.0,61,-99.99,,,0.00,,2013-04-29 22:42:00,
2013-04-29 17:52:00,71.0,59.0,29.87,West,279,1.0,-999.0,65,-99.99,,,0.00,,2013-04-29 22:52:00,
2013-04-29 18:02:00,72.0,58.0,29.87,West,279,0.0,-999.0,62,-99.99,,,0.00,,2013-04-29 23:02:00,
2013-04-29 18:11:00,72.0,58.0,29.87,West,279,0.0,-999.0,62,-99.99,,,0.00,,2013-04-29 23:11:00,
2013-04-29 18:22:00,73.0,59.0,29.87,WNW,289,3.0,-999.0,61,-99.99,,,0.00,,2013-04-29 23:22:00,
2013-04-29 18:32:00,73.0,59.0,29.87,WNW,286,1.0,-999.0,62,-99.99,,,0.00,,2013-04-29 23:32:00,
2013-04-29 18:42:00,73.0,59.0,29.87,WNW,286,1.0,-999.0,62,-99.99,,,0.00,,2013-04-29 23:42:00,
2013-04-29 18:52:00,74.0,58.0,29.87,WNW,286,0.0,-999.0,58,-99.99,,,0.00,,2013-04-29 23:52:00,
2013-04-29 19:01:00,73.0,58.0,29.87,WNW,285,1.0,-999.0,60,-99.99,,,0.00,,2013-04-30 00:01:00,
2013-04-29 19:11:00,73.0,58.0,29.87,WNW,285,1.0,-999.0,60,-99.99,,,0.00,,2013-04-30 00:11:00,
2013-04-29 19:21:00,71.0,60.0,29.88,WNW,285,0.0,-999.0,68,-99.99,,,0.00,,2013-04-30 00:21:00,
2013-04-29 19:32:00,68.0,59.0,29.88,WNW,285,0.0,-999.0,74,-99.99,,,0.00,,2013-04-30 00:32:00,
2013-04-29 19:41:00,68.0,59.0,29.88,WNW,285,0.0,-999.0,74,-99.99,,,0.00,,2013-04-30 00:41:00,
2013-04-29 19:52:00,65.0,59.0,29.88,WNW,285,0.0,-999.0,80,-99.99,,,0.00,,2013-04-30 00:52:00,
2013-04-29 20:02:00,63.0,58.0,29.89,WNW,285,0.0,-999.0,84,-99.99,,,0.00,,2013-04-30 01:02:00,
2013-04-29 20:11:00,63.0,58.0,29.89,WNW,285,0.0,-999.0,84,-99.99,,,0.00,,2013-04-30 01:11:00,
2013-04-29 20:21:00,62.0,58.0,29.90,WNW,285,0.0,-999.0,87,-99.99,,,0.00,,2013-04-30 01:21:00,
2013-04-29 20:32:00,61.0,58.0,29.91,WNW,285,0.0,-999.0,90,-99.99,,,0.00,,2013-04-30 01:32:00,
2013-04-29 20:41:00,61.0,58.0,29.91,WNW,285,0.0,-999.0,90,-99.99,,,0.00,,2013-04-30 01:41:00,
2013-04-29 20:51:00,60.0,58.0,29.92,WNW,285,0.0,-999.0,92,-99.99,,,0.00,,2013-04-30 01:51:00,
2013-04-29 21:01:00,59.0,57.0,29.93,WNW,285,1.0,-999.0,92,-99.99,,,0.00,,2013-04-30 02:01:00,
2013-04-29 21:11:00,59.0,57.0,29.93,WNW,285,1.0,-999.0,92,-99.99,,,0.00,,2013-04-30 02:11:00,
2013-04-29 21:21:00,58.0,56.0,29.94,WNW,285,1.0,-999.0,93,-99.99,,,0.00,,2013-04-30 02:21:00,
2013-04-29 21:31:00,58.0,56.0,29.95,WNW,285,0.0,-999.0,94,-99.99,,,0.00,,2013-04-30 02:31:00,
2013-04-29 21:41:00,58.0,56.0,29.95,WNW,285,0.0,-999.0,94,-99.99,,,0.00,,2013-04-30 02:41:00,
2013-04-29 21:51:00,58.0,57.0,29.95,WNW,285,0.0,-999.0,95,-99.99,,,0.00,,2013-04-30 02:51:00,
2013-04-29 22:01:00,57.0,56.0,29.95,WNW,285,0.0,-999.0,95,-99.99,,,0.00,,2013-04-30 03:01:00,
2013-04-29 22:11:00,57.0,56.0,29.95,WNW,285,0.0,-999.0,95,-99.99,,,0.00,,2013-04-30 03:11:00,
2013-04-29 22:21:00,57.0,56.0,29.95,WNW,285,0.0,-999.0,95,-99.99,,,0.00,,2013-04-30 03:21:00,
2013-04-29 22:33:00,56.0,55.0,29.96,WNW,285,0.0,-999.0,96,-99.99,,,0.00,,2013-04-30 03:33:00,
2013-04-29 22:42:00,56.0,55.0,29.96,WNW,285,0.0,-999.0,96,-99.99,,,0.00,,2013-04-30 03:42:00,
2013-04-29 22:52:00,56.0,55.0,29.96,WNW,285,0.0,-999.0,96,-99.99,,,0.00,,2013-04-30 03:52:00,
2013-04-29 23:02:00,56.0,55.0,29.95,WNW,285,0.0,-999.0,96,-99.99,,,0.00,,2013-04-30 04:02:00,
2013-04-29 23:12:00,56.0,55.0,29.95,WNW,285,0.0,-999.0,96,-99.99,,,0.00,,2013-04-30 04:12:00,
2013-04-29 23:22:00,55.0,54.0,29.95,WNW,285,0.0,-999.0,96,-99.99,,,0.00,,2013-04-30 04:22:00,
2013-04-29 23:32:00,56.0,55.0,29.95,WNW,285,0.0,-999.0,97,-99.99,,,0.00,,2013-04-30 04:32:00,
2013-04-29 23:42:00,56.0,55.0,29.95,WNW,285,0.0,-999.0,97,-99.99,,,0.00,,2013-04-30 04:42:00,
2013-04-29 23:52:00,56.0,55.0,29.95,WNW,285,0.0,-999.0,97,-99.99,,,0.00,,2013-04-30 04:52:00,